Location: Caltech
(34.1382°N, 118.1253°W)
Time: 20:35:14

SEDSat Delta rocket - Visible Passes

Search period start: 26 November 2015 00:00
Search period end: 06 December 2015 00:00
Orbit: 534 x 1004 km, 31.4° (Epoch: 26 November)

Date Brightness Start Highest point End Pass type
(mag) Time Alt. Az. Time Alt. Az. Time Alt. Az.
01 Dec 6.2 05:50:30 10° S 05:53:00 13° SSE 05:55:30 10° SE visible
02 Dec 6.3 05:10:52 10° S 05:12:57 12° SSE 05:15:07 10° SE visible
03 Dec 6.4 04:31:31 10° SSE 04:32:52 11° SSE 04:34:24 10° SE visible
04 Dec 5.3 05:33:48 10° SW 05:38:47 29° SSE 05:43:18 10° E visible
05 Dec 5.4 04:53:38 10° SSW 04:58:40 27° SSE 05:03:16 10° E visible
